Jacksonville Craig, FL

6:06 PM EDT on April 23, 2017 (GMT -0400)
Craig Municipal

Weather History for KCRG - December, 2012

Change the Weather History Date:

Friday, December 14, 2012

  Actual Average Record
Temperature  
Mean Temperature 54 °F -  
Max Temperature 59 °F 63 °F 82 °F (2000)
Min Temperature 50 °F 45 °F 24 °F (2010)
Degree Days  
Heating Degree Days 10    
Growing Degree Days 4 (Base 50)    
Moisture  
Dew Point 50 °F    
Average Humidity 81    
Maximum Humidity 89    
Minimum Humidity 69    
Precipitation  
Precipitation 0.00 in - - ()
Sea Level Pressure  
Sea Level Pressure 30.23 in    
Wind  
Wind Speed 8 mph (North)    
Max Wind Speed 13 mph    
Max Gust Speed 21 mph    
Visibility 8 miles    
Events      
Averages and records for this station are not official NWS values.
T = Trace of Precipitation, MM = Missing Value Source: NWS Daily Summary

Daily Weather History Graph

Daily Weather History Graph

Search for Another Location

Airport or City:

Trip Planner

Search our weather history database for the weather conditions in past years. The results will help you decide how hot, cold, wet, or windy it might be!

Date:

Astronomy

Dec. 14, 2012 Rise Set
Actual Time 7:14 AM EST 5:27 PM EST
Civil Twilight 6:48 AM EST 5:53 PM EST
Nautical Twilight 6:18 AM EST 6:23 PM EST
Astronomical Twilight 5:49 AM EST 6:52 PM EST
Moon 8:21 AM EST (12/14) 7:13 PM EST (12/14)
Length of Visible Light 11h 05m
Length of Day
10h 12m
Waxing Crescent, 3% of the Moon is Illuminated
Dec 14
Waxing Crescent
Dec 20
First Quarter
Dec 28
Full
Jan 4
Last Quarter
Jan 11
New

Hourly Weather History & Observations

Time (EST) Temp. Dew Point Humidity Pressure Visibility Wind Dir Wind Speed Gust Speed Precip Events Conditions
1:53 AM 50.0 °F 46.9 °F 89% 30.25 in 3.0 mi North 6.9 mph - N/A   Overcast
2:53 AM 50.0 °F 46.9 °F 89% 30.24 in 4.0 mi North 8.1 mph - N/A   Overcast
3:53 AM 50.0 °F 46.9 °F 89% 30.24 in 5.0 mi NW 8.1 mph - N/A   Overcast
4:45 AM 51.8 °F 48.2 °F 88% 30.23 in 6.0 mi NNW 5.8 mph - N/A   Overcast
4:53 AM 51.1 °F 48.0 °F 89% 30.23 in 6.0 mi NNW 6.9 mph - N/A   Overcast
5:53 AM 52.0 °F 48.0 °F 86% 30.25 in 7.0 mi North 9.2 mph - N/A   Overcast
7:53 AM 52.0 °F 48.0 °F 86% 30.26 in 5.0 mi North 8.1 mph - N/A   Overcast
8:53 AM 53.1 °F 48.9 °F 86% 30.29 in 6.0 mi NNW 10.4 mph - N/A   Overcast
9:53 AM 55.0 °F 50.0 °F 83% 30.31 in 7.0 mi North 9.2 mph - N/A   Overcast
10:53 AM 57.9 °F 51.1 °F 78% 30.31 in 9.0 mi North 9.2 mph - N/A   Overcast
11:29 AM 59.0 °F 51.8 °F 77% 30.29 in 10.0 mi NNE 10.4 mph - N/A   Mostly Cloudy
11:53 AM 59.0 °F 51.1 °F 75% 30.29 in 10.0 mi North 9.2 mph 19.6 mph N/A   Overcast
12:53 PM 57.9 °F 51.1 °F 78% 30.27 in 10.0 mi North 11.5 mph - N/A   Overcast
1:53 PM 57.9 °F 51.1 °F 78% 30.22 in 10.0 mi NNE 11.5 mph 20.7 mph N/A   Overcast
2:53 PM 59.0 °F 50.0 °F 72% 30.20 in 10.0 mi NNE 12.7 mph 19.6 mph N/A   Overcast
3:34 PM 59.0 °F 50.0 °F 72% 30.20 in 10.0 mi NE 11.5 mph - N/A   Mostly Cloudy
3:53 PM 59.0 °F 48.9 °F 69% 30.21 in 10.0 mi NNE 10.4 mph - N/A   Scattered Clouds
4:53 PM 57.0 °F 48.9 °F 74% 30.20 in 10.0 mi NNE 9.2 mph - N/A   Scattered Clouds
5:17 PM 57.2 °F 48.2 °F 72% 30.21 in 10.0 mi NNE 8.1 mph - N/A   Mostly Cloudy
5:53 PM 57.0 °F 50.0 °F 77% 30.21 in 10.0 mi NNE 4.6 mph - N/A   Overcast
6:53 PM 57.0 °F 51.1 °F 81% 30.22 in 10.0 mi North 4.6 mph - N/A   Overcast
7:28 PM 55.4 °F 50.0 °F 82% 30.20 in 10.0 mi North 3.5 mph - N/A   Scattered Clouds
7:53 PM 54.0 °F 50.0 °F 86% 30.20 in 10.0 mi NNW 3.5 mph - N/A   Clear
8:53 PM 55.9 °F 52.0 °F 87% 30.20 in 10.0 mi NNW 5.8 mph - N/A   Overcast
9:53 PM 55.9 °F 51.1 °F 84% 30.21 in 10.0 mi NNW 8.1 mph - N/A   Overcast
10:53 PM 55.0 °F 50.0 °F 83% 30.19 in 10.0 mi North 5.8 mph - N/A   Overcast
11:17 PM 53.6 °F 50.0 °F 88% 30.18 in 10.0 mi NNW 4.6 mph - N/A   Scattered Clouds
11:53 PM 54.0 °F 48.9 °F 83% 30.18 in 10.0 mi North 8.1 mph - N/A   Partly Cloudy